レモン彗星

P/2017 TW13 ( Lemmon )

English version
Home page
Updated on September 10, 2020

---------------------------------------------------------------------

・ プロフィール

発見日 2017年9月1日
発見光度 20.2等
発見者 J. A. Johnson (Mount Lemmon)

・ 写真集

・ 軌道要素

Epoch 2018 June 11.0 TT = JDT 2458280.5                                         
T 2018 June 20.98534 TT                                 Rudenko                 
q   2.0788050            (2000.0)            P               Q                  
n   0.05142517     Peri.  120.10958     -0.02146040     -0.90190044             
a   7.1617456      Node   322.27630     +0.48416079     +0.36816018             
e   0.7097349      Incl.   44.83658     +0.87471583     -0.22590636             
P  19.2                                                                         
From 208 observations 2017 July 18-2019 July 6, mean residual 0".5.             

・ 光度変化

        m1 = 11.5 + 5 logΔ + 12.5 log r

---------------------------------------------------------------------

軌道要素はM.P.E.C. 2020-R04に掲載されたものです。
光度グラフはComet for Windowsで作成したものです。

---------------------------------------------------------------------

Copyright(C) Seiichi Yoshida (comet@aerith.net). All rights reserved.